Showing default

HAWK-3A, 48957

Orbit data source: Space-Track

HAWK-3A, 48957 is a payload satellite owned by HawkEye 360 (US) in SSO that was launched on Wed, 30 Jun 2021 UTC via an FALCON 9 launch vehicle from the Air Force Eastern Test Range (AFETR). Payload-class satellites include a variety of spacecraft equipped with specific instruments for various scientific and technological missions. These include communications satellites like Starlink; space stations such as the ISS; scientific satellites like the Hubble; Earth observation satellites from companies like Planet Labs, Umbra, and HawkEye 360; GPS; miniature CubeSats for education and research; and military/defense satellites.

Loading next visibility...
Identifier
48957, 2021-059CG
Orbit
SSO
Country
Flag of USUS
Related business
Manufacturer
UTIAS-SFL
Mission
Operational Commercial Sigint
Bus & Motor
DEFIANT, Unknown motor
Mass
31 kg wet, 30 kg dry
Launch date (UTC)
2021-06-30 (4 years ago)
Launch vehicle
FALCON 9
Launch site
Air Force Eastern Test Range (AFETR)
Object type
Payload
Rocket body
Debris
Shape & HBR
Box + 2 Pan, 1.0 m
Radar Cross Section
0.348 m², Medium (>0.1 m² and < 1m²)

Expand to show TLE details & history
Last TLE update: 15 hours ago

TLE from 15 hours ago
0 HAWK-3A
1 48957U 21059CG  25309.04739116  .00026189  00000-0  42936-3 0  9993
2 48957  97.6806 125.2121 0007541  74.8174 285.3912 15.52413696242890
Epoch: 2025-11-05T01:08Z
TLE epoch observation values (Epoch: 2025-11-05T01:08:14.596Z)
Latitude
0.00006°
Longitude
63.62561°
Altitude
411.452 km
Speed
7.665 km/s
True Right ascension
08h 20m 50s
True Declination
0° 00' 00"
Sunlit
Object was in daylight at epoch
Visualization orbit readout
Latitude
Unknown
Longitude
Unknown
Altitude
Unknown
Speed
Unknown
Apparent Right ascension
Unknown
Apparent Declination
Unknown
Sunlit
N/A
Visualization observer readout
Local Sidereal Time
11:40:22
Azimuth
Unknown
Elevation
Unknown
Doppler factor
Unknown
Orbital elements
Apogee altitude
411.732 km
Perigee altitude
401.5 km
Semi-major axis
6,784.753 km
Eccentricity
0.00075
Inclination
97.6806°
RAAN
125.2121°
Arg. of periapsis
74.8174°
True anomaly
285.30786°
Mean anomaly
285.3912°
Eccentric anomaly
285.34953°
Mean motion
3.88367 °/min
Orbital period
92.7 mins
BSTAR
0.00042936
Loading maneuver chart data...
Computing Atmospheric mass density...

Documentation

Showing up to 5 results
|